STARLINK-37579, 69843

Orbit data source: Space-Track

STARLINK-37579, 69843 is a payload satellite owned by SpaceX/Seattle (US) in LEO that was launched on Sun, 05 Jul 2026 UTC via an FALCON 9 launch vehicle from the Air Force Eastern Test Range (AFETR). Payload-class satellites include a variety of spacecraft equipped with specific instruments for various scientific and technological missions. These include communications satellites like Starlink; space stations such as the ISS; scientific satellites like the Hubble; Earth observation satellites from companies like Planet Labs, Umbra, and HawkEye 360; GPS; miniature CubeSats for education and research; and military/defense satellites.

Loading next visibility...
Identifier
69843, 2026-154AA
Orbit
LEO
Country
Flag of USUS
Related business
Manufacturer
SpaceX/Seattle
Mission
Operational spacecraft
Bus & Motor
STARLINK V2MO, Unknown motor
Mass
575 kg wet, ~530 kg dry
Launch date (UTC)
2026-07-05 (1 month ago)
Launch vehicle
FALCON 9
Launch site
Air Force Eastern Test Range (AFETR)
Object type
Payload
Rocket body
Debris
Shape & HBR
BOX + PAN, 17.7 m
Radar Cross Section
Large (>1 m²)

Expand to show TLE details & history
Last TLE update: 6 hours ago

TLE from 6 hours ago
0 STARLINK-37579
1 69843U 26154AA  26220.16668980  .00003634  00000-0  11511-3 0  9992
2 69843  53.1588 174.6348 0001081  70.4307 167.6118 15.35381941  5999
Epoch: 2026-08-08T04:00Z
TLE epoch observation values (Epoch: 2026-08-08T04:00:01.998Z)
Latitude
-42.96557°
Longitude
21.88873°
Altitude
474.899 km
Speed
7.628 km/s
True Right ascension
02h 34m 18s
True Declination
-42° 47' 13"
Sunlit
Object was in daylight at epoch
Visualization orbit readout
Latitude
Unknown
Longitude
Unknown
Altitude
Unknown
Speed
Unknown
Apparent Right ascension
Unknown
Apparent Declination
Unknown
Sunlit
N/A
Visualization observer readout
Local Sidereal Time
00:22:41
Azimuth
Unknown
Elevation
Unknown
Doppler factor
Unknown
Orbital elements
Apogee altitude
460.783 km
Perigee altitude
459.304 km
Semi-major axis
6,838.18 km
Eccentricity
0.00011
Inclination
53.1588°
RAAN
174.6348°
Arg. of periapsis
70.4307°
True anomaly
167.61446°
Mean anomaly
167.6118°
Eccentric anomaly
167.61313°
Mean motion
3.83824 °/min
Orbital period
93.79 mins
BSTAR
0.00011511
Loading maneuver chart data...
Computing Atmospheric mass density...
Loading historical data...
Loading historical data...
Loading historical data...
Loading historical data...
Loading historical data...
Loading historical data...
Loading historical data...

Documentation

Showing up to 5 results
|